#timestamp,LO_Frequency,Hit,StdDev 
1646060415.6,286047004.1,N
1646060435.4,286047004.4,N
1646060455.3,286047002.8,N
1646060475.1,286047001.8,N
1646060495.8,286047004.3,N
1646060515.7,286046997.2,N
1646060535.5,286047003.2,N
1646060555.4,286047010.0,N
1646060575.2,286047014.6,N
1646060595.0,286047015.8,N
1646060595.9,286047015.8,N
1646060615.8,286047012.9,N
1646060635.6,286047008.5,N
1646060655.4,286047007.5,N
1646060675.3,286047003.6,N
1646060695.1,286047009.2,N
1646060715.9,286047009.3,N
1646060735.7,286047009.5,N
1646060755.5,286047008.1,N
1646060775.4,286047009.8,N
1646060795.2,286047008.3,N
1646060815.0,286047004.8,N
1646060815.9,286047004.8,N
1646060835.8,286047000.1,N
1646060855.6,286047006.5,N
1646060875.5,286047008.2,N
1646060895.3,286047012.6,N
1646060915.1,286047016.5,Y
1646060935.9,286047013.6,P
1646060955.7,286047010.3,P
1646060975.6,286047006.2,N
1646060995.4,286047012.1,Y
1646061015.2,286046998.5,P
1646061035.1,286047004.3,N
1646061036.0,286047004.3,N
1646061055.8,286047001.5,N
1646061075.6,286046999.7,N
1646061095.5,286047005.5,N
1646061115.3,286047011.0,Y
1646061135.2,286047009.6,P
1646061155.9,286047010.3,P
1646061175.7,286047002.3,N
1646061195.6,286046995.6,N
1646061215.4,286046997.6,N
1646061235.2,286047003.8,N
1646061255.1,286047005.2,N
1646061256.0,286047005.2,N
1646061275.8,286047003.9,N
1646061295.7,286047001.7,N
1646061315.5,286047002.5,N
1646061335.3,286047010.8,N
1646061355.2,286047006.3,N
1646061375.0,286047010.9,N
1646061375.9,286047010.9,N
1646061395.7,286047011.6,N
1646061415.6,286047014.8,Y
1646061435.4,286047008.1,P
1646061455.3,286047009.3,P
1646061475.1,286047004.7,N
1646061495.8,286047002.8,N
1646061515.7,286047001.4,N
1646061535.5,286047007.0,N
1646061555.4,286047012.2,Y
1646061575.2,286047004.1,P
1646061595.0,286047002.7,P
1646061595.9,286047002.7,N
1646061615.8,286047007.3,Y
1646061635.6,286047004.3,P
1646061655.4,286047004.8,P
1646061675.3,286047002.5,P
1646061695.1,286047000.8,N
1646061715.9,286046993.1,Y
1646061735.7,286046982.4,P
1646061755.5,286046986.8,N
1646061775.4,286046987.2,N
1646061795.2,286046991.6,N
1646061815.0,286046990.1,N
1646061816.0,286046990.1,N
1646061835.8,286046999.4,N
1646061855.6,286047003.3,N
1646061875.5,286047005.0,N
1646061895.3,286047008.0,N
1646061915.1,286047009.4,N
1646061935.9,286047010.1,N
1646061955.7,286047010.6,N
1646061975.5,286047012.2,N
1646061995.4,286047014.6,N
1646062015.2,286047015.6,N
1646062035.1,286047014.1,N
1646062036.0,286047014.1,N
1646062055.8,286047017.2,N
1646062075.6,286047006.1,N
1646062095.5,286047010.6,N
1646062115.3,286047010.3,N
1646062135.1,286047005.2,N
1646062155.9,286047005.0,N
1646062175.7,286047008.2,N
1646062195.6,286047008.2,N
1646062215.4,286047001.2,N
1646062235.2,286047000.9,N
1646062255.1,286046998.4,N
1646062256.0,286046998.4,N
1646062275.8,286046997.2,N
1646062295.6,286046997.5,N
1646062315.5,286046999.1,N
1646062335.3,286047002.5,N
1646062355.2,286047000.1,N
1646062375.9,286047000.0,N
1646062395.7,286047005.1,N
1646062415.6,286047003.5,N
1646062435.4,286047006.6,N
1646062455.2,286047002.1,N
1646062475.1,286046999.9,N
1646062476.0,286046999.9,N
1646062495.8,286047003.2,N
1646062515.7,286047005.3,N
1646062535.5,286047001.2,N
1646062555.3,286046996.9,N
1646062575.2,286046997.1,N
1646062595.0,286046995.3,N
1646062595.9,286046995.3,N
1646062615.8,286046997.7,N
1646062635.6,286046997.5,N
1646062655.4,286046996.5,N
1646062675.3,286046995.2,N
1646062695.1,286046994.8,N
1646062696.0,286046994.8,N
1646062715.8,286046994.1,N
1646062735.7,286046992.1,N
1646062755.5,286046990.6,N
1646062775.3,286046991.8,N
1646062795.2,286046997.3,N
1646062815.0,286046995.6,N
1646062815.9,286046995.6,N
1646062835.8,286046991.8,N
1646062855.6,286046996.9,N
1646062875.4,286046999.4,N
1646062895.3,286047002.0,N
1646062915.1,286047001.7,N
1646062935.9,286047001.4,N
1646062955.7,286046995.9,N
1646062975.5,286046996.2,N
1646062995.4,286046994.9,N
1646063015.2,286046998.2,N
1646063035.0,286046999.6,N
1646063035.9,286046999.6,N
1646063055.8,286047002.8,N
1646063075.6,286047004.2,N
1646063095.5,286047000.2,N
1646063115.3,286046993.8,N
1646063135.1,286046995.5,N
1646063155.9,286046996.9,N
1646063175.7,286046994.9,N
1646063195.5,286046990.8,N
1646063215.4,286046989.8,N
1646063235.2,286046990.7,N
1646063255.1,286046992.8,N
1646063256.0,286046992.8,N
1646063275.8,286046993.7,N
1646063295.6,286046997.6,N
1646063315.5,286046994.5,N
1646063335.3,286046992.4,N
1646063355.1,286046988.9,N
1646063375.9,286046987.6,Y
1646063395.7,286046994.4,P
1646063415.6,286046996.0,P
1646063435.4,286046993.1,P
1646063455.2,286046988.8,Y
1646063475.1,286046998.4,P
1646063476.0,286046998.4,N
1646063495.8,286047002.7,N
1646063515.7,286047001.6,N
1646063535.5,286046997.9,N
1646063555.3,286046998.9,N
1646063575.2,286046997.7,N
1646063595.9,286046992.1,Y
1646063615.7,286046997.7,P
1646063635.6,286046998.9,N
1646063655.4,286047000.3,N
1646063675.3,286047000.5,N
1646063695.1,286046995.3,Y
1646063696.0,286046995.3,P
1646063715.8,286046992.1,P
1646063735.7,286046996.4,N
1646063755.5,286046992.1,Y
1646063775.3,286047000.4,P
1646063795.2,286047000.2,N
1646063815.0,286046995.4,N
1646063815.9,286046995.4,N
1646063835.8,286046996.4,N
1646063855.6,286046988.7,Y
1646063875.4,286046992.8,P
1646063895.3,286046993.3,P
1646063915.1,286046991.3,P
1646063935.9,286046989.6,Y
1646063955.7,286046999.3,P
1646063975.5,286046997.3,N
1646063995.4,286046992.8,P
